Flag Weather past 2 weeks in Nablus, West Bank

Now
70 °F

Scattered clouds.


Feels Like: 70 °F
Forecast: 48 / 59 °F
Wind: 2 mph from North

Location: Ben Gurion International Airport

Current Time: Nov 29, 2014 at 11:58:09 AM

Latest Report: Nov 29, 2014 at 11:20 AM


Visibility: N/A

Pressure: 30.24 "Hg

Humidity: 53%

Dew point: 52 °F

Location of NablusLocation

Historic Weather in Nablus — Graph

°F

Nablus temperature yesterday

Maximum temperature yesterday: 72 °F (at 12:50 PM)
Minimum temperature yesterday: 52 °F (at 4:50 AM)
Average temperature yesterday: 61 °F

Past Weeks' High & Low Weather Summary

 TemperatureHumidityPressure
High81 °F (Nov 14, 11:50 AM)94% (Nov 16, 5:50 AM)30.27 "Hg (Nov 16, 5:50 AM)
Low52 °F (Nov 25, 3:20 AM)30% (Nov 19, 3:20 PM)29.86 "Hg (Nov 14, 1:20 PM)
Average63 °F74%30.01 "Hg
* Reported Nov 14 10:20 AM — Nov 29 10:50 AM, Nablus, Weather by CustomWeather, © 2014

Note: Actual official high and low records may vary slightly from our data, if they occured in-between our weather recording intervals... More about our weather records

Advertising

Nablus weather history for previous 24 hours

 ConditionsComfort  
Time TempWeatherWind HumidityBarometerVisibility
10:50 AM
Nov 29
70 °FPassing clouds.1 mph57%30.24 "HgN/A
10:20 AM66 °FPassing clouds.5 mph64%30.24 "HgN/A
9:50 AM66 °FPassing clouds.2 mph68%30.27 "HgN/A
9:20 AM63 °FPassing clouds.3 mph68%30.27 "HgN/A
8:50 AM61 °FSunny.1 mph77%30.27 "Hg10 mi
8:20 AM57 °FSunny.1 mph88%30.27 "Hg10 mi
7:50 AM55 °FSunny.1 mph88%30.27 "Hg10 mi
7:20 AM54 °FSunny.2 mph88%30.27 "Hg10 mi
6:50 AM54 °FPassing clouds.2 mph88%30.24 "HgN/A
6:20 AM54 °FPassing clouds.3 mph82%30.24 "HgN/A
5:50 AM54 °FClear.6 mph88%30.24 "Hg10 mi
5:20 AM54 °FClear.3 mph94%30.24 "Hg10 mi
4:50 AM52 °FClear.2 mph94%30.24 "Hg10 mi
4:20 AM52 °FClear.3 mph94%30.24 "Hg10 mi
3:50 AM54 °FPassing clouds.3 mph88%30.24 "HgN/A
3:20 AM54 °FPassing clouds.3 mph88%30.24 "HgN/A
2:50 AM54 °FPassing clouds.2 mph88%30.24 "HgN/A
2:20 AM54 °FPassing clouds.2 mph88%30.24 "HgN/A
1:50 AM55 °FPassing clouds.2 mph82%30.24 "HgN/A
1:20 AM55 °FPassing clouds.3 mph82%30.24 "HgN/A
12:50 AM55 °FPassing clouds.3 mph82%30.24 "HgN/A
12:20 AM57 °FPassing clouds.3 mph82%30.24 "HgN/A
11:50 PM
Nov 28
57 °FPassing clouds.5 mph82%30.24 "HgN/A
11:20 PM57 °FPassing clouds.5 mph82%30.27 "HgN/A
10:50 PM57 °FPassing clouds.2 mph82%30.27 "HgN/A
10:20 PM57 °FPassing clouds.2 mph82%30.27 "HgN/A
9:50 PM59 °FPassing clouds.2 mph77%30.24 "HgN/A
9:20 PM59 °FPassing clouds.2 mph77%30.24 "HgN/A
8:50 PM59 °FPassing clouds.5 mph77%30.24 "HgN/A
8:20 PM61 °FPassing clouds.5 mph72%30.24 "HgN/A
7:50 PM61 °FPassing clouds.8 mph77%30.24 "HgN/A
7:20 PM61 °FPassing clouds.5 mph77%30.24 "HgN/A
6:50 PM63 °FPassing clouds.3 mph73%30.24 "HgN/A
6:20 PM64 °FPassing clouds.5 mph64%30.24 "HgN/A
5:50 PM64 °FPassing clouds.2 mph68%30.24 "HgN/A
5:20 PM64 °FPassing clouds.2 mph68%30.24 "HgN/A
4:50 PM64 °FPassing clouds.3 mph68%30.21 "HgN/A
4:20 PM64 °FPassing clouds.6 mph64%30.21 "HgN/A
3:50 PM68 °FScattered clouds.8 mph56%30.21 "HgN/A
3:20 PM68 °FPartly sunny.8 mph56%30.21 "HgN/A
2:50 PM68 °FScattered clouds.8 mph56%30.21 "HgN/A
2:20 PM70 °FScattered clouds.7 mph53%30.18 "HgN/A
1:50 PM72 °FScattered clouds.3 mph50%30.18 "HgN/A
1:20 PM72 °FScattered clouds.2 mph47%30.18 "HgN/A
12:50 PM72 °FScattered clouds.2 mph47%30.21 "HgN/A
12:20 PM70 °FScattered clouds.5 mph50%30.18 "HgN/A
11:50 AM70 °FPassing clouds.2 mph50%30.21 "HgN/A
11:20 AM66 °FPassing clouds.3 mph60%30.21 "HgN/A
Weather by CustomWeather, © 2014

See weather overviewHow to use our weather pages